Tracking 17631 objects as of 4-May-2016
HD Live streaming from Space Station
objects crossing your sky now

EUTE HOT BIRD 13A (HB 6)

Track EUTE HOT BIRD 13A (HB 6) now!
EUTE HOT BIRD 13A (HB 6) is classified as:


NORAD ID: 27499
Int'l Code: 2002-038A
Perigee: 35,700.5 km
Apogee: 35,728.6 km
Inclination: 0.1 °
Period: 1,432.1 minutes
Semi major axis: 42085 km
RCS: 15.0118 m2 (large)
Launch date: August 21, 2002
Source: European Telecommunications Satellite Organization (EUTE)
Launch site: AIR FORCE EASTERN TEST RANGE (AFETR)

Cable programming; direct-to-home broadcasting; 28 Ku-band, 4 Ka-band transponders
Your satellite tracking list
Your tracking list is empty





NASA's NSSDC Master Catalog

Two Line Element Set (TLE):
1 27499U 02038A   16124.23463313  .00000031  00000-0  00000+0 0  9996
2 27499   0.0506  40.2431 0003341  26.0656 293.7351  1.00554853 50156
Source of the keplerian elements: AFSPC

N2YO: 547